Overview Statistics Trail Chart Weather Telemetry Raw packets
 

This is the latest recevied weather packets stored in our database for station/object N5CSU. If no packets are shown the sender has not sent any weather packets the latest 10 day(s).

<< 35 36 37 38 39 40 41 >>
Time Temp. Humidity Pressure Rain* Wind** Luminosity Snow
1788379343 36.11° C 44% 1012.8 hPa 0 mm - 82 W/m² -
1788379039 36.67° C 42% 1012.9 hPa 0 mm - 35 W/m² -
1788378737 36.11° C 43% 1013.1 hPa 0 mm - 18 W/m² -
1788378437 36.11° C 43% 1013.1 hPa 0 mm - 13 W/m² -
1788378132 36.67° C 43% 1013.3 hPa 0 mm - 15 W/m² -
1788377828 36.11° C 44% 1013.2 hPa 0 mm - 14 W/m² -
1788377523 36.67° C 42% 1013.3 hPa 0 mm - 19 W/m² -
1788377221 36.11° C 43% 1013.4 hPa 0 mm - 28 W/m² -
1788376920 36.11° C 43% 1013.5 hPa 0 mm - 91 W/m² -
1788376615 36.11° C 45% 1013.7 hPa 0 mm - 137 W/m² -
1788376315 36.11° C 46% 1013.6 hPa 0 mm - 197 W/m² -
1788376010 36.11° C 44% 1013.8 hPa 0 mm - 255 W/m² -
1788375705 35.56° C 44% 1013.9 hPa 0 mm - 106 W/m² -
1788375396 35.56° C 45% 1014.1 hPa 0 mm - 21 W/m² -
1788375091 35.56° C 45% 1014.2 hPa 0 mm - 126 W/m² -
1788374786 35° C 49% 1014.1 hPa 0 mm - 305 W/m² -
1788374481 35° C 48% 1014.3 hPa 0 mm - 17 W/m² -
1788374178 35.56° C 48% 1014.3 hPa 0 mm - 33 W/m² -
1788373874 35° C 48% 1014.3 hPa 0 mm - 104 W/m² -
1788373569 35° C 49% 1014.5 hPa 0 mm - 27 W/m² -
1788373266 35° C 50% 1014.7 hPa 0 mm - 67 W/m² -
1788372962 35° C 51% 1014.7 hPa 0 mm - 502 W/m² -
1788372655 35° C 51% 1015 hPa 0 mm - 65 W/m² -
1788372355 35.56° C 50% 1015 hPa 0 mm - 370 W/m² -
1788372051 35° C 50% 1015.1 hPa 0 mm - 520 W/m² -

* Rain latest hour (hover to see other rain measurements)
** Current wind speed in m/s (hover to see current wind gust speed)